This is the latest recevied weather packets stored in our database for station/object JS2QVS-13. If no packets are shown the sender has not sent any weather packets the latest 10 day(s).
| Time | Temp. | Humidity | Pressure | Rain* | Wind** | Luminosity | Snow |
|---|---|---|---|---|---|---|---|
| 1777676861 | 18.33° C | 53% | 1003.6 hPa | 0 mm | - | - | - |
| 1777676261 | 17.78° C | 54% | 1003.5 hPa | 0 mm | - | - | - |
| 1777675662 | 17.78° C | 56% | 1003.6 hPa | 0 mm | - | - | - |
| 1777675062 | 17.22° C | 57% | 1003.4 hPa | 0 mm | - | - | - |
| 1777674463 | 17.22° C | 57% | 1003.1 hPa | 0 mm | - | - | - |
| 1777673862 | 16.67° C | 59% | 1003.1 hPa | 0 mm | - | - | - |
| 1777673261 | 16.67° C | 60% | 1002.9 hPa | 0 mm | - | - | - |
| 1777672662 | 16.67° C | 62% | 1003 hPa | 0 mm | - | - | - |
| 1777672062 | 16.11° C | 63% | 1002.8 hPa | 0 mm | - | - | - |
| 1777671462 | 16.11° C | 63% | 1002.6 hPa | 0 mm | - | - | - |
| 1777670862 | 16.11° C | 64% | 1002.5 hPa | 0 mm | - | - | - |
| 1777670261 | 16.11° C | 65% | 1002.4 hPa | 0 mm | - | - | - |
| 1777669661 | 15.56° C | 67% | 1002.3 hPa | 0 mm | - | - | - |
| 1777669061 | 15.56° C | 67% | 1002.2 hPa | 0 mm | - | - | - |
| 1777668463 | 15.56° C | 69% | 1001.8 hPa | 0 mm | - | - | - |
| 1777667863 | 15° C | 70% | 1001.6 hPa | 0 mm | - | - | - |
| 1777667263 | 15° C | 71% | 1001.3 hPa | 0 mm | - | - | - |
| 1777666662 | 15° C | 71% | 1001 hPa | 0 mm | - | - | - |
| 1777666062 | 15° C | 71% | 1000.7 hPa | 0 mm | - | - | - |
| 1777665462 | 15° C | 70% | 1000.2 hPa | 0 mm | - | - | - |
| 1777664862 | 15.56° C | 70% | 999.9 hPa | 0 mm | - | - | - |
| 1777664262 | 15.56° C | 70% | 999.6 hPa | 0 mm | - | - | - |
| 1777663662 | 15.56° C | 69% | 999.5 hPa | 0 mm | - | - | - |
| 1777663062 | 15.56° C | 70% | 999.4 hPa | 0 mm | - | - | - |
| 1777662461 | 15.56° C | 70% | 999.1 hPa | 0 mm | - | - | - |
* Rain latest hour (hover to see other rain measurements)
** Current wind speed in m/s (hover to see current wind gust speed)